Location: Pace/Milton
(30.6162°N, 87.1503°W)
Time: 10:52:29
(UTC-06:00)

Envisat - Pass Details

Date: 14 December 2021
Orbit: 764 x 766 km, 98.2° (Epoch: 23 January)

Event Time Altitude Azimuth Distance (km) Brightness Sun altitude
Rises 05:03:52 0° 5° (N) 3,233 6.1 -19.7°
Reaches altitude 10° 05:06:14 10° 0° (N) 2,304 5.3 -19.2°
Maximum altitude 05:11:08 51° 286° (WNW) 955 3.1 -18.2°
Drops below altitude 10° 05:16:00 10° 211° (SSW) 2,291 5.3 -17.2°
Sets 05:18:21 0° 206° (SSW) 3,213 6.1 -16.7°
